DELTA 1 DEB

Satellite information

Favourite Embed

Satellite Type and Status

DEBRISIN ORBIT

Key statistics

Satellite DELTA 1 DEB at a glance.

Uptime

17589

Days in orbit

Revolutions

≈ 13.6

Per day

Orbit

LEO

Low Earth Orbit

Inclination

28.8

Latest

Satellite identification and parameters

Extended collection of information and parameters for DELTA 1 DEB.

Object identification

Identified? True

Debris? True

Object name: DELTA 1 DEB

International designator: 1977-065DL

Object number (NORAD): 10314

Object ID (CCSDS): 10314

Country: UNITED STATES OF AMERICA (US)

Current information (Y/N): Y

RCS size: SMALL

Orbital parameters

Period: 106.099 minutes

Inclination: 28.781 deg

SMA: 7423.951 km

Apoapsis: 1521.151 km

Periapsis: 570.481 km

RAAN: 322.6962 deg

Eccentricy: 0.06402723

Argument of periapsis: 163.244 deg

Mean anomaly: 284.0295 deg

Mean motion: 13.5721961 rev/day

Mean motion (dot): 0.0000378 rev/day2

B* drag term: 0.0012948582 1/REarth

Two-line elements (TLE)

Creation date: Sept. 8, 2025, 6:18 p.m.

Reference frame: TEME

Reference center: EARTH

Epoch: Sept. 8, 2025, 9:14 a.m. UTC

TLE line 0: 0 DELTA 1 DEB

TLE line 1: 1 10314U 77065DL 25251.38511027 .00003780 00000-0 12949-2 0 9991

TLE line 2: 2 10314 28.7810 322.6962 0640272 163.2440 284.0295 13.57219610320985

Live tracking on map

Real-time ground track for satellite DELTA 1 DEB.

In-orbit conjunctions

A list of the most updated potential collisions computed for object DELTA 1 DEB.

Target Orbit TCA Probability of collision Miss distance Type
CZ-2D R/B SSO 2025-03-30 16:49:06 0.0001049817 657.0 (m) ROCKET BODY

Associated space launch

Japanese meteorological satellite built by Hughes Space and Communications Company

DELTA 1 DEB was lifted into orbit during the mission ‘Delta 2914 | Himawari’, on board a Delta 2914 space rocket.

The launch took place on July 14, 1977, 10:39 a.m. from Space Launch Complex 17B.

For more information about the launch, click the button.

Launch to space Delta 2914 | Himawari
Delta 2914 | Himawari

Agency: N/A

Status: Launch Successful

Launch date: July 14, 1977, 10:39 a.m. UTC

Rocket: Delta 2914

Launch pad: Space Launch Complex 17B

Location: Cape Canaveral SFS, FL, USA

...

Latest news about this satellite

There are no fresh news available about this satellite. Check back as we update our databases every day.


Newsletter sign-up

Weekly statistics, charts and insights to help you stay on top of the space industry.